Regional Weather Roundup
Issued by NWS Goodland, KS

Home | Current Version | Previous Version | Text Only | Print | Product List | Glossary Off
Versions: 1 2 3 4 5 6 7 8 9 10 11 12 13 14 15 16 17 18 19 20 21 22 23 24 25 26 27 28 29 30 31 32 33 34 35 36 37 38 39 40 41 42 43 44 45 46 47 48 49 50

000
ASUS43 KGLD 070059
RWRGLD

GOODLAND FORECAST AREA HOURLY WEATHER ROUNDUP
NATIONAL WEATHER SERVICE GOODLAND KS
700 PM MDT WED MAY 06 2015

...OFFICIAL OBSERVATIONS...

CITY           SKY/WX    TMP DP  RH WIND       PRES   REMARKS
GOODLAND KS    PTCLDY    67  54  63 SW12      29.64R
HILL CITY KS   MOCLDY    70  53  54 W3        29.58S
IMPERIAL NEB   CLOUDY    63  54  72 SW10      29.57F
MCCOOK NEB     LGT RAIN  68  55  63 S8        29.57S
AKRON CO       MOCLDY    60  53  77 NW10      29.67R
BURLINGTON CO  PTCLDY    64  52  64 SW9       29.67R
LIMON CO       CLOUDY    54  48  80 SW9       29.73R
$$

...UNOFFICIAL OBSERVATIONS...

CITY           SKY/WX    TMP DP  RH WIND       PRES   REMARKS
COLBY KS       CLEAR     66  59  77 S7        29.63R
GOVE KS          N/A     76  32  20 MISG        N/A
LENORA KS        N/A     69  32  25 MISG        N/A
NORTON KS      CLOUDY    68  50  52 SW7       29.58S
SHARON SPRINGS   N/A     71  56  59 MISG        N/A
TRENTON NEB      N/A     67  32  27 SW8         N/A
KIT CARSON CO    N/A     66  56  70 MISG        N/A
YUMA CO          N/A     61  53  75 W12G18      N/A
$$



USA.gov is the U.S. government's official web portal to all federal, state and local government web resources and services.